OBJECT A

Satellite information

Favourite Embed

Satellite Type and Status

UNKNOWNIN ORBIT

Key statistics

Satellite OBJECT A at a glance.

Uptime

1354

Days in orbit

Revolutions

≈ 15.0

Per day

Orbit

SSO

Sun Synchronous Orbit

Inclination

97.6

Latest

Satellite identification and parameters

Extended collection of information and parameters for OBJECT A.

Object identification

Identified? True

Debris? False

Object name: OBJECT A

International designator: 2022-032A

Object number (NORAD): 52153

Object ID (CCSDS): 52153

Country: PEOPLES REPUBLIC OF CHINA (PRC)

Current information (Y/N): Y

RCS size: MEDIUM

Orbital parameters

Period: 96.221 minutes

Inclination: 97.6115 deg

SMA: 6955.677 km

Apoapsis: 585.763 km

Periapsis: 569.321 km

RAAN: 24.282 deg

Eccentricy: 0.0011819

Argument of periapsis: 87.5019 deg

Mean anomaly: 272.7555 deg

Mean motion: 14.96558347 rev/day

Mean motion (dot): 0.0000408 rev/day2

B* drag term: 0.00036309546 1/REarth

Two-line elements (TLE)

Creation date: Dec. 12, 2025, 10:14 a.m.

Reference frame: TEME

Reference center: EARTH

Epoch: Dec. 12, 2025, 7:29 a.m. UTC

TLE line 0: 0 OBJECT A

TLE line 1: 1 52153U 22032A 25346.31245405 .00004080 00000-0 36310-3 0 9997

TLE line 2: 2 52153 97.6115 24.2820 0011819 87.5019 272.7555 14.96558347201889

Live tracking on map

Real-time ground track for satellite OBJECT A.

In-orbit conjunctions

There are no conjunctions computed for OBJECT A, at the moment. Check back to stay up to date, as we update our databases every day.

Go to all conjunctions

Associated space launch

The Tianping-2 A/B/C satellites were built by the China Aerospace Science and Industry Corporation (CASIC) and will be used as calibration targets for services such as atmospheric space environment study and orbital prediction model correction.

OBJECT A was lifted into orbit during the mission ‘Long March 11 | Tianping-2 A/B/C’, on board a Long March 11 space rocket.

The launch took place on March 30, 2022, 2:29 a.m. from Launch Area 95A.

For more information about the launch, click the button.

Launch to space Long March 11 | Tianping-2 A/B/C
Long March 11 | Tianping-2 A/B/C

Agency: N/A

Status: Launch Successful

Launch date: March 30, 2022, 2:29 a.m. UTC

Rocket: Long March 11

Launch pad: Launch Area 95A

Location: Jiuquan Satellite Launch Center, People's Republic of China

...

Latest news about this satellite

There are no fresh news available about this satellite. Check back as we update our databases every day.


Newsletter sign-up

Weekly statistics, charts and insights to help you stay on top of the space industry.